Location: Spring Mountain Observatory
(40.2501°N, 75.4333°W)
Time: 19:48:44
(UTC-04:00)

Hubble Space Telescope - Visible Passes

Search period start: 25 April 2018 00:00
Search period end: 05 May 2018 00:00
Orbit: 537 x 541 km, 28.5° (Epoch: 25 April)

Date Brightness Start Highest point End Pass type
(mag) Time Alt. Az. Time Alt. Az. Time Alt. Az.
26 Apr 3.0 21:19:52 10° SSW 21:20:37 12° S 21:20:37 12° S visible
27 Apr 2.7 21:09:05 10° SSW 21:11:12 14° S 21:11:13 14° S visible
28 Apr 2.6 20:58:25 10° SSW 21:00:45 15° S 21:01:43 14° SSE visible
29 Apr 2.7 20:47:51 10° SSW 20:50:18 15° S 20:52:07 12° SSE visible
30 Apr 2.7 20:37:20 10° SW 20:39:52 16° S 20:42:25 10° SE visible
01 May 2.7 20:26:54 10° SW 20:29:27 16° S 20:31:59 10° SE visible
